AirNav   Duncan Aviation - Near you to keep you flying
 
 1583 users online  

MU95 First Precinct Police Heliport
Blackjack, Missouri, USA

GOING TO BLACKJACK?


FAA INFORMATION EFFECTIVE 08 SEPTEMBER 2022

Location

FAA Identifier: MU95
Lat/Long: 38-47-12.0400N 090-14-06.9800W
38-47.200667N 090-14.116333W
38.7866778,-90.2352722
(estimated)
Elevation: 534 ft. / 163 m (estimated)
Variation: 01E (1990)
From city: 1 mile SE of BLACKJACK, MO
Time zone: UTC -5 (UTC -6 during Standard Time)
Zip code: 63033

Heliport Operations

Heliport use: Private use. Permission required prior to landing
Activation date: 02/1992
Control tower: no
ARTCC: KANSAS CITY CENTER
FSS: SAINT LOUIS FLIGHT SERVICE STATION
Attendance: CONTINUOUS
Wind indicator: yes
Segmented circle: no

Heliport Communications

WX ASOS at STL (7 nm W): PHONE 314-890-4790
WX AWOS-3 at ALN (11 nm NE): 128.0 (618-259-7231)
WX ASOS at SET (13 nm NW): 118.075 (636-250-4590)
WX ASOS at CPS (14 nm S): PHONE 618-332-0001

Nearby radio navigation aids

VOR radial/distance  VOR name  Freq  Var
STLr110/12.4ST LOUIS VORTAC117.4001E
TOYr277/15.1TROY VORTAC116.0004E
FTZr076/34.9FORISTELL VORTAC110.8005E

 
NDB name  Hdg/Dist  Freq  Var  ID
CIVIC MEMORIAL234/10.526301WCVM -.-. ...- --

Heliport Services

Runway Information

Helipad H1

Dimensions: 40 x 40 ft. / 12 x 12 m
Surface: concrete
Traffic pattern: leftleft

Heliport Ownership and Management from official FAA records

Ownership: Publicly-owned
Owner: ST. LOUIS COUNTY POLICE DEPT.
7900 FORSYTH
ST. LOUIS, MO 63105
Phone 314-889-2341
Manager: SGT. DAN CUNNINGHAM
18200 EDISON
CHESTERFIELD, MO 63005
Phone 636-532-2984

Additional Remarks

OWNER DESIRES ARPT NOT BE CHARTED.
FOR CD CTC ST LOUIS APCH AT 314-890-1018.

Instrument Procedures

There are no published instrument procedures at MU95.

Some nearby airports with instrument procedures:

KSTL - St Louis Lambert International Airport (7 nm W)
KALN - St Louis Regional Airport (11 nm NE)
KSET - St Charles County Smartt Airport (13 nm NW)
1H0 - Creve Coeur Airport (13 nm W)
KCPS - St Louis Downtown Airport (14 nm S)
 
Loc | Ops | Rwys | IFR | FBO | Links
Com | Nav | Svcs | Stats | Notes
Area around MU95 (First Precinct Police Heliport)
 
Road maps at: MapQuest Bing Google
 
Aerial photo
No photo
 
Sectional chart

 
Airport distance calculator
Flying to First Precinct Police Heliport? Find the distance to fly.

From to MU95

Sunrise and sunset
Times for 04-Oct-2022
 Local
(UTC-5)
 Zulu
(UTC)
Morning civil twilight06:3411:34
Sunrise07:0112:01
Sunset18:3923:39
Evening civil twilight19:0500:05

Current date and time
Zulu (UTC)  04-Oct-2022 21:43:23
Local (UTC-5)  04-Oct-2022 16:43:23
 
METAR
KSTL 
7nm W 
042051Z 17003KT 10SM SCT250 23/01 A3016 RMK AO2 SLP209 T02330011 56023
KALN 
11nm NE 
042050Z VRB03KT 10SM CLR 24/01 A3016
KSET 
13nm NW 
042054Z AUTO 00000KT 10SM CLR 24/03 A3014 RMK AO2 SLP205 T02440028 56023
KCPS 
14nm S 
042053Z 14003KT 10SM CLR 24/02 A3015 RMK AO2 SLP208 T02390022 56023
TAF
KSTL 
7nm W 
041726Z 0418/0524 12005KT P6SM FEW250 FM051400 18006KT P6SM SCT150
KCPS 
14nm S 
041726Z 0418/0518 VRB03KT P6SM FEW250 FM051400 18006KT P6SM SCT150
NOTAMs
Click for the latest NOTAMs
NOTAMs are issued by the DoD/FAA and will open in a separate window not controlled by AirNav.

 

 
 

Would you like to see your business listed on this page?

 If your business provides an interesting product or service to pilots, flight crews, aircraft, or users of the First Precinct Police Heliport, you should consider listing it here.  To start the listing process, click on the button below
 
Add a business
 

Other Pages about First Precinct Police Heliport

Update a link
 
Copyright © AirNav, LLC. All rights reserved. Privacy Policy  Contact